Waarnemingen

Advertentie
Mijn weer
Antwerpen, België (6450): temperatuur & dauwpunt: 17.01.2021 12:00:00 - 23.01.2021 12:00:00 (CET)Antwerpen, België (6450): windsnelheid & windstoten: 17.01.2021 12:00:00 - 23.01.2021 12:00:00 (CET)Antwerpen, België (6450): windrichting: 17.01.2021 12:00:00 - 23.01.2021 12:00:00 (CET)Antwerpen, België (6450): luchtdruk: 17.01.2021 12:00:00 - 23.01.2021 12:00:00 (CET)Antwerpen, België (6450): zicht: 17.01.2021 12:00:00 - 23.01.2021 12:00:00 (CET)
Datum & Tijd tt [°C] td [°C] ff [km/u] ff [kn] fx [km/u] fx [kn] dd ppp [hPa] vv [km]
23.01.2021 12:00:00 4,2 1,9 8 4 14 8 ZZW 995,3 10
23.01.2021 11:00:00 3,6 1,4 9 5 18 10 ZZW 995,5 10
23.01.2021 10:00:00 3,4 1,3 11 6 - - ZZW 996,1 10
23.01.2021 09:00:00 3,3 1,1 13 7 25 14 ZZW 996,0 10
23.01.2021 08:00:00 3,6 1,4 11 6 22 12 ZZW 995,8 10
23.01.2021 07:00:00 3,6 1,5 15 8 - - ZZW 995,3 10
23.01.2021 06:00:00 3,6 1,7 15 8 22 12 ZZW 995,1 10
23.01.2021 05:00:00 3,9 1,7 13 7 22 12 ZZW 995,5 10
23.01.2021 04:00:00 4,3 1,8 15 8 - - ZZW 995,9 10
23.01.2021 03:00:00 4,3 1,7 15 8 22 12 ZZW 996,0 10
23.01.2021 02:00:00 2,8 1,0 9 5 14 8 Z 996,0 10
23.01.2021 01:00:00 2,6 0,7 11 6 - - Z 996,5 10
23.01.2021 00:00:00 2,4 0,2 8 4 11 6 Z 996,8 10
22.01.2021 23:00:00 2,3 -0,3 9 5 11 6 Z 997,0 10
22.01.2021 22:00:00 2,1 -0,1 8 4 - - Z 997,0 10
22.01.2021 21:00:00 2,8 0,5 8 4 11 6 Z 996,9 10
22.01.2021 20:00:00 3,9 1,1 5 3 11 6 Z 996,7 10
22.01.2021 19:00:00 4,8 1,6 7 4 - - ZZW 996,4 30
22.01.2021 18:00:00 5,0 1,8 9 5 14 8 ZW 995,9 10
22.01.2021 17:00:00 5,8 1,8 9 5 22 12 ZW 995,6 10
22.01.2021 16:00:00 6,5 1,9 13 7 - - ZW 995,6 10
22.01.2021 15:00:00 6,9 2,7 15 8 22 12 ZW 995,1 10
22.01.2021 14:00:00 6,5 2,4 13 7 25 14 WZW 994,8 10
22.01.2021 13:00:00 5,8 3,0 11 6 - - ZW 994,6 10
22.01.2021 12:00:00 5,0 2,6 13 7 25 14 WZW 994,2 10
22.01.2021 11:00:00 4,4 2,4 13 7 22 12 ZW 993,6 10
22.01.2021 10:00:00 3,9 2,2 15 8 - - ZW 992,7 10
22.01.2021 09:00:00 3,6 2,0 13 7 22 12 ZW 991,9 10
22.01.2021 08:00:00 3,5 2,1 13 7 18 10 ZW 991,1 10
22.01.2021 07:00:00 3,7 2,1 11 6 - - ZW 990,5 10
22.01.2021 06:00:00 4,0 2,3 15 8 25 14 ZW 990,1 10
22.01.2021 05:00:00 4,1 2,3 15 8 29 16 ZW 989,7 10
22.01.2021 04:00:00 3,8 2,2 15 8 - - ZW 988,8 10
22.01.2021 03:00:00 4,0 2,3 13 7 22 12 WZW 988,0 10
22.01.2021 02:00:00 4,1 2,2 13 7 43 23 W 987,1 10
22.01.2021 01:00:00 4,0 2,3 25 14 - - NW 985,6 22
22.01.2021 00:00:00 5,9 4,6 26 14 50 27 WNW 983,7 7
21.01.2021 23:00:00 9,5 6,7 29 16 54 29 ZZW 982,7 10
21.01.2021 22:00:00 9,1 7,0 24 13 - - ZZW 983,0 10
21.01.2021 21:00:00 6,7 5,6 13 7 25 14 ZZO 984,0 10
21.01.2021 20:00:00 5,7 4,7 11 6 18 10 O 986,1 4,5
21.01.2021 19:00:00 5,8 4,3 8 4 - - ZZO 988,9 9
21.01.2021 18:00:00 7,2 3,7 24 13 47 25 ZZW 990,6 10
21.01.2021 17:00:00 8,4 3,1 22 12 43 23 ZZW 991,2 10
21.01.2021 16:00:00 8,3 3,1 28 15 - - ZZW 991,8 10
21.01.2021 15:00:00 8,4 2,8 28 15 50 27 ZZW 992,2 10
21.01.2021 14:00:00 8,2 3,0 34 18 54 29 ZZW 992,4 10
21.01.2021 13:00:00 7,8 3,0 29 16 - - ZZW 992,8 10
21.01.2021 12:00:00 7,5 3,0 26 14 50 27 ZW 993,0 10
21.01.2021 11:00:00 7,0 2,8 29 16 50 27 ZZW 992,8 10
21.01.2021 10:00:00 6,6 2,9 24 13 - - ZZW 992,3 10
21.01.2021 09:00:00 6,3 2,6 21 11 32 18 ZZW 991,9 10
21.01.2021 08:00:00 6,6 2,0 21 11 47 25 ZZW 990,8 10
21.01.2021 07:00:00 7,1 1,1 29 16 - - WZW 989,6 10
21.01.2021 06:00:00 7,2 3,1 24 13 68 37 ZW 988,4 10
21.01.2021 05:00:00 7,5 4,8 34 18 90 49 WZW 986,7 10
21.01.2021 04:00:00 11,1 7,0 39 21 - - ZZW 983,5 10
21.01.2021 03:00:00 11,9 5,4 37 20 79 43 Z 984,2 10
21.01.2021 02:00:00 12,1 4,6 35 19 68 37 Z 984,7 10
21.01.2021 01:00:00 11,5 4,6 35 19 - - Z 986,6 10
21.01.2021 00:00:00 11,4 4,6 34 18 61 33 Z 988,2 10
20.01.2021 23:00:00 11,4 4,6 35 19 61 33 Z 989,7 10
20.01.2021 22:00:00 11,3 4,4 31 17 - - Z 990,8 10
20.01.2021 21:00:00 10,8 4,1 31 17 50 27 Z 992,1 10
20.01.2021 20:00:00 10,9 2,4 21 11 40 21 Z 992,9 10
20.01.2021 19:00:00 10,6 1,9 24 13 - - Z 993,4 10
20.01.2021 18:00:00 10,5 1,2 24 13 36 19 Z 993,7 10
20.01.2021 17:00:00 10,8 0,9 26 14 47 25 Z 994,2 10
20.01.2021 16:00:00 10,7 0,8 28 15 - - Z 994,5 10
20.01.2021 15:00:00 10,4 1,6 26 14 43 23 Z 995,3 10
20.01.2021 14:00:00 10,1 1,7 22 12 40 21 Z 996,0 10
20.01.2021 13:00:00 9,4 1,3 26 14 - - ZZW 997,4 10
20.01.2021 12:00:00 8,9 1,7 28 15 47 25 ZZW 998,4 10
20.01.2021 11:00:00 8,5 1,7 29 16 47 25 ZZW 998,9 10
20.01.2021 10:00:00 8,5 3,1 26 14 - - ZZW 999,4 10
20.01.2021 09:00:00 7,7 4,5 24 13 43 23 ZZW 999,7 10
20.01.2021 08:00:00 7,3 5,1 26 14 43 23 ZZW 999,7 10
20.01.2021 07:00:00 8,0 5,3 25 14 - - ZZW 1000,2 20
20.01.2021 06:00:00 8,0 4,0 24 13 43 23 ZZW 1000,5 10
20.01.2021 05:00:00 7,7 4,5 28 15 43 23 ZZW 1001,1 10
20.01.2021 04:00:00 7,2 4,4 24 13 - - ZZW 1001,8 10
20.01.2021 03:00:00 7,3 4,0 26 14 47 25 ZZW 1002,6 10
20.01.2021 02:00:00 7,1 3,8 29 16 47 25 ZZW 1002,9 10
20.01.2021 01:00:00 6,9 3,4 22 12 - - ZZW 1003,7 10
20.01.2021 00:00:00 7,0 3,8 26 14 50 27 ZZW 1004,5 10
19.01.2021 23:00:00 7,4 4,6 28 15 50 27 ZZW 1005,1 10
19.01.2021 22:00:00 7,1 4,7 26 14 - - ZZW 1006,0 10
19.01.2021 21:00:00 6,9 4,7 24 13 43 23 ZZW 1006,7 10
19.01.2021 20:00:00 7,2 4,8 28 15 47 25 ZZW 1007,4 10
19.01.2021 19:00:00 7,9 5,8 26 14 - - ZZW 1007,5 10
19.01.2021 18:00:00 8,3 6,4 28 15 43 23 ZW 1007,6 10
19.01.2021 17:00:00 8,8 7,1 24 13 47 25 ZW 1007,7 10
19.01.2021 16:00:00 10,2 7,5 24 13 - - WZW 1007,4 10
19.01.2021 15:00:00 10,0 7,9 28 15 47 25 WZW 1007,1 10
19.01.2021 14:00:00 9,4 7,7 24 13 50 27 ZW 1007,3 10
19.01.2021 13:00:00 9,1 7,7 29 16 - - WZW 1007,6 8
19.01.2021 12:00:00 8,5 7,1 29 16 54 29 ZW 1007,5 6
19.01.2021 11:00:00 8,3 6,8 31 17 54 29 WZW 1007,3 10
19.01.2021 10:00:00 7,0 5,4 29 16 - - ZW 1007,4 9
19.01.2021 09:00:00 6,3 4,7 35 19 61 33 ZW 1007,4 9
19.01.2021 08:00:00 6,0 4,5 31 17 61 33 ZZW 1008,1 7
19.01.2021 07:00:00 5,7 4,2 28 15 - - ZW 1009,4 6
19.01.2021 06:00:00 5,6 4,1 28 15 47 25 ZZW 1010,6 7
19.01.2021 05:00:00 5,1 3,6 28 15 47 25 ZZW 1011,9 10
19.01.2021 04:00:00 4,8 3,2 24 13 - - ZZW 1013,4 5
19.01.2021 03:00:00 5,1 2,1 24 13 40 21 ZZW 1014,9 10
19.01.2021 02:00:00 5,0 1,7 22 12 43 23 ZZW 1016,0 10
19.01.2021 01:00:00 5,6 2,1 24 13 - - ZZW 1017,2 10
19.01.2021 00:00:00 5,9 2,7 24 13 36 19 ZW 1018,1 10
18.01.2021 23:00:00 5,8 3,4 21 11 32 18 ZW 1019,0 10
18.01.2021 22:00:00 5,7 3,9 16 9 - - ZZW 1019,4 10
18.01.2021 21:00:00 5,7 3,8 18 10 32 18 ZW 1020,1 10
18.01.2021 20:00:00 5,4 3,6 16 9 29 16 ZW 1020,7 10
18.01.2021 19:00:00 5,2 3,3 18 10 - - ZW 1021,0 10
18.01.2021 18:00:00 5,6 3,4 22 12 32 18 ZW 1021,0 20
18.01.2021 17:00:00 5,9 3,4 18 10 25 14 ZW 1021,3 10
18.01.2021 16:00:00 6,1 3,4 16 9 - - ZW 1021,6 10
18.01.2021 15:00:00 5,9 3,2 22 12 32 18 ZW 1021,6 20
18.01.2021 14:00:00 5,7 3,0 18 10 32 18 ZW 1022,4 20
18.01.2021 13:00:00 5,4 2,6 18 10 - - WZW 1023,1 10
18.01.2021 12:00:00 4,9 2,5 16 9 29 16 ZW 1023,4 10
18.01.2021 11:00:00 4,1 2,0 16 9 25 14 WZW 1024,0 10
18.01.2021 10:00:00 3,3 1,5 11 6 - - ZW 1024,1 10
18.01.2021 09:00:00 2,9 1,2 13 7 22 12 ZW 1023,7 10
18.01.2021 08:00:00 2,9 1,4 15 8 22 12 ZW 1023,9 10
18.01.2021 07:00:00 3,2 1,6 15 8 - - ZW 1024,0 10
18.01.2021 06:00:00 3,0 1,5 15 8 22 12 WZW 1024,2 10
18.01.2021 05:00:00 3,6 2,1 13 7 22 12 ZW 1024,5 10
18.01.2021 04:00:00 3,5 2,1 13 7 - - ZW 1024,6 10
18.01.2021 03:00:00 3,7 2,1 15 8 22 12 ZW 1024,6 10
18.01.2021 02:00:00 4,8 2,6 15 8 22 12 ZW 1024,8 10
18.01.2021 01:00:00 5,1 2,7 13 7 - - W 1025,2 10
18.01.2021 00:00:00 5,0 2,4 13 7 18 10 WZW 1025,0 10
17.01.2021 23:00:00 5,2 2,3 11 6 22 12 WZW 1024,7 10
17.01.2021 22:00:00 5,4 2,5 13 7 - - W 1024,7 10
17.01.2021 21:00:00 5,5 3,0 15 8 25 14 W 1024,7 10
17.01.2021 20:00:00 5,5 3,2 13 7 22 12 W 1024,5 10
17.01.2021 19:00:00 5,9 3,5 15 8 - - W 1024,0 10
17.01.2021 18:00:00 6,0 3,3 21 11 36 19 WNW 1023,4 10
17.01.2021 17:00:00 6,5 3,5 18 10 32 18 WNW 1022,7 10
17.01.2021 16:00:00 6,8 3,6 21 11 - - WNW 1021,9 10
17.01.2021 15:00:00 7,2 3,2 21 11 36 19 WNW 1021,1 10
17.01.2021 14:00:00 7,0 3,5 14 8 36 19 NW 1020,8 20
17.01.2021 13:00:00 6,8 3,7 21 11 - - NW 1020,4 10
17.01.2021 12:00:00 6,5 4,1 16 9 29 16 WNW 1020,1 10

tt = temperatuur
td = dauwpunt
ff = windsnelheid
fx = windstoten
dd = windrichting
ppp = luchtdruk
vv = zicht

Weerstations in de omgeving